{"data":{"norad_id":62807,"epoch":"2026-05-25T04:46:12.088128Z","epoch_age_seconds":61100,"freshness":"FRESH","line1":"1 62807U 25018B   26145.19875102  .00021270  00000+0  72810-3 0  9992","line2":"2 62807  53.1592 314.1204 0001662 104.7180 255.4005 15.30205093 74898","mean_motion":15.30205093,"eccentricity":0.0001662,"inclination_deg":53.1592,"raan_deg":314.1204,"arg_perigee_deg":104.718,"mean_anomaly_deg":255.4005,"bstar":0.0007281,"rev_number":7489,"period_min":94.105032494491,"perigee_km":474.06083809494,"apogee_km":476.3388872681,"semimajor_km":6853.3368626815,"source":"CELESTRAK","updated_at":"2026-05-25T13:38:19.749687Z"}}